Regional Weather Roundup
Issued by NWS

Home | Current Version | Previous Version | Graphics & Text | Print | Product List | Glossary On
Versions: 1 2 3 4 5 6 7 8 9 10 11 12 13 14 15 16 17 18 19 20 21 22 23 24 25 26 27 28 29 30 31 32 33 34 35 36 37 38 39 40 41 42 43 44 45 46 47 48 49 50
000
ASUS43 KFSD 022302
RWRSD

WEATHER ROUNDUP FOR SOUTH DAKOTA
NATIONAL WEATHER SERVICE SIOUX FALLS SD
600 PM CDT THU JUL 02 2015

NOTE: "FAIR" INDICATES FEW OR NO CLOUDS BELOW 12,000 FEET WITH NO
SIGNIFICANT WEATHER AND/OR OBSTRUCTIONS TO VISIBILITY.


SDZ001>005-009-010-012>017-030000-
NORTHWEST AND NORTH CENTRAL SOUTH DAKOTA

CITY           SKY/WX    TMP DP  RH WIND       PRES   REMARKS
BUFFALO          N/A     79  55  43 N10       30.00S
FAITH            N/A     79  57  46 N16G23    30.01F
MOBRIDGE       MOSUNNY   80  66  62 N8        29.95S HAZE
$$

SDZ012>016-024>037-041>051-057-063-072>074-030000-
SOUTHWEST AND SOUTH CENTRAL SOUTH DAKOTA

CITY           SKY/WX    TMP DP  RH WIND       PRES   REMARKS
RAPID CTY ARPT SUNNY     79  56  45 N22       30.06F
PIERRE         MOSUNNY   76  64  66 N6        29.96S
CUSTER         SUNNY     73  46  38 N10       30.19S
ELLSWORTH AFB  SUNNY     80  56  43 NW21      30.06S
PHILIP         MOSUNNY   82  59  45 N9        29.99F
PINE RIDGE     MOSUNNY   79  57  46 N10G20    30.06F
WINNER         FAIR      80  58  46 N12       29.97F
$$

SDZ004>011-016>023-039-040-030000-
NORTHEAST SOUTH DAKOTA

CITY           SKY/WX    TMP DP  RH WIND       PRES   REMARKS
ABERDEEN       SUNNY     72  63  73 SE8       29.97F
WATERTOWN      MOSUNNY   74  49  41 S6        29.98F
BROOKINGS      CLOUDY    72  50  46 S7        30.01S
SISSETON         N/A     75  55  49 S6        29.95F
$$

SDZ017-020-022-023-036>040-048>070-030000-
SOUTHEAST SOUTH DAKOTA

CITY           SKY/WX    TMP DP  RH WIND       PRES   REMARKS
SIOUX FALLS    CLOUDY    69  57  65 SE3       29.99F
HURON          MOSUNNY   72  62  71 S8        29.97S
CHAMBERLAIN    MOSUNNY   73  64  72 NE7       29.97S
MITCHELL       CLOUDY    68  59  73 E8        29.99S
YANKTON        PTSUNNY   68  61  77 E6        29.97S
$$

ABBREVIATIONS USED IN REMARKS
   TC - TEMPERATURE IN CELSIUS
  WCI - WIND CHILL INDEX
   HX - HEAT INDEX
  VSB - VISIBILITY



USA.gov is the U.S. government's official web portal to all federal, state and local government web resources and services.